ODENSE/BELDRINGE current weather conditions

sailwx.info

Wind from 220 at 15 knots

Air temperature 8.0° C
Visibility: greater than 5.4 NM
Dewpoint 7.0° C

Last reported at 2019-Dec-05 15:50 UTC.
Time now 2019-Dec-05 19:23 UTC

Location: N 55°28' E 010°20'.
View on Google Maps.

See reports from other nearby stations

  
Tides and Currents Weather Stations Pressure Air Temp Water Temp Dewpoint Dewpoint Depression Visibility Wind Speed Wind Dir Waves Ship Positions
date/time (UTC)wind fromknots sea level pressurealtimeterstation pressurevisibilityair tempwater tempwave heightnotes
2019-Dec-05 15:50 220 15 5.4 8.0
2019-Dec-05 14:50 220 13 5.4 8.0
2019-Dec-05 13:50 220 13 5.4 8.0
2019-Dec-05 12:50 220 13 5.4 8.0
2019-Dec-05 12:20 220 14 5.4 8.0
2019-Dec-05 11:50 220 13 5.4 8.0
2019-Dec-05 10:50 220 13 4.9 7.0
2019-Dec-05 08:50 220 9 3.8 7.0
2019-Dec-05 08:20 220 11 3.8 6.0
2019-Dec-05 07:50 220 9 4.3 6.0
2019-Dec-05 07:20 210 11 3.2 6.0
2019-Dec-05 06:20 210 9 3.2 6.0
2019-Dec-04 16:50 230 9 5.4 7.0
2019-Dec-04 15:50 230 8 5.4 6.0
2019-Dec-04 14:50 230 12 5.4 7.0
2019-Dec-04 13:50 240 13 5.4 8.0
2019-Dec-04 12:50 240 14 5.4 8.0
2019-Dec-04 12:20 240 13 5.4 8.0
2019-Dec-04 11:50 240 13 5.4 8.0
2019-Dec-04 11:20 240 12 5.4 8.0
2019-Dec-04 10:50 230 11 5.4 8.0
2019-Dec-04 10:20 230 8 5.4 8.0
2019-Dec-04 09:50 240 8 5.4 8.0
2019-Dec-04 09:20 230 6 5.4 7.0
2019-Dec-04 08:50 250 8 5.4 7.0
2019-Dec-04 08:20 250 7 5.4 7.0
2019-Dec-04 07:50 260 7 5.4 7.0
2019-Dec-04 06:20 240 8 5.4 7.0